This is the latest recevied weather packets stored in our database for station/object EA6AMR-10. If no packets are shown the sender has not sent any weather packets the latest 10 day(s).
| Time | Temp. | Humidity | Pressure | Rain* | Wind** | Luminosity | Snow |
|---|---|---|---|---|---|---|---|
| 1777381167 | 28.33° C | 37% | 1013.7 hPa | - | - | - | - |
| 1777380267 | 28.89° C | 37% | 1013.8 hPa | - | - | - | - |
| 1777379367 | 28.33° C | 37% | 1013.7 hPa | - | - | - | - |
| 1777378466 | 28.33° C | 37% | 1013.6 hPa | - | - | - | - |
| 1777377566 | 28.33° C | 37% | 1013.5 hPa | - | - | - | - |
| 1777376714 | 29.44° C | 36% | 1013.6 hPa | - | - | - | - |
| 1777376666 | 29.44° C | 36% | 1013.6 hPa | - | - | - | - |
| 1777375766 | 32.78° C | 35% | 1013.4 hPa | - | - | - | - |
| 1777374866 | 33.33° C | 35% | 1013.4 hPa | - | - | - | - |
| 1777373965 | 32.22° C | 34% | 1013.5 hPa | - | - | - | - |
| 1777373065 | 31.67° C | 35% | 1013.7 hPa | - | - | - | - |
| 1777372165 | 32.22° C | 35% | 1013.7 hPa | - | - | - | - |
| 1777371265 | 31.67° C | 34% | 1014.1 hPa | - | - | - | - |
| 1777370364 | 31.11° C | 34% | 1014.1 hPa | - | - | - | - |
| 1777369518 | 31.11° C | 34% | 1014.2 hPa | - | - | - | - |
| 1777369464 | 31.11° C | 34% | 1014.2 hPa | - | - | - | - |
| 1777368564 | 30.56° C | 35% | 1014.3 hPa | - | - | - | - |
| 1777367664 | 30.56° C | 36% | 1014.3 hPa | - | - | - | - |
| 1777366764 | 29.44° C | 36% | 1014.4 hPa | - | - | - | - |
| 1777365863 | 28.33° C | 37% | 1014.5 hPa | - | - | - | - |
| 1777364967 | 27.78° C | 37% | 1014.6 hPa | - | - | - | - |
| 1777364067 | 26.67° C | 36% | 1014.7 hPa | - | - | - | - |
| 1777363167 | 25.56° C | 37% | 1014.6 hPa | - | - | - | - |
| 1777362319 | 25° C | 37% | 1014.6 hPa | - | - | - | - |
| 1777362266 | 25° C | 37% | 1014.6 hPa | - | - | - | - |
* Rain since midnight (hover to see other rain measurements)
** Current wind speed in m/s (hover to see current wind gust speed)